NZWNNZQN

Guest
Details From NZWN - Wellington Intl
To NZQN - Queenstown
Flight Number -
Tags Generated
Created
Modified
Stats Distance 346 nm / 641 km
Max Altitude 0 ft / 0 m
Waypoints 3
Social Downloads 1
Likes 0
Share VATSIM

Download

Looking for another format? Having issues loading an existing format? Contact us
Advertisement - Login to hide

Notes

Generated

Route

NZWN CRIFL NZQN

ID Type Via Altitude Latitude Longitude Leg Dist Tot Dist Heading (true) Name
O NZWN APT - 0 ft / 0 m -41.31787˚ 174.80743˚ - 0 nm - -
CRIFL FIX - 0 ft / 0 m -44.71153˚ 169.22560˚ 318 nm 318 nm 228° / 232° -
O NZQN APT - 0 ft / 0 m -45.02010˚ 168.74263˚ 27 nm 346 nm 228° / 228° -

Altitude Profile

Advertisement - Login to hide

Weather


0- 5 10 15 20 25 30 35+ Temperature / ° C

Clouds and Precipitation
Forecast for 2017-12-16 06:00 UTC. Updated 15 minutes ago

Ground ~20,000 ft ~40,000 ft Winds

NZWN

Details ICAO NZWN (WLG)
Name Wellington Intl
Region New Zealand and Antarctica
Timezone Pacific/Auckland (UTC+13.0)
Stats Elevation 42 ft / 13 m (AMSL)
Location -41.326843° 174.806842°
Runways 1
Magnetic Variation 22.589° E

METAR

NZWN 160330Z AUTO 16010KT 9999 NCD 22/16 Q1017 NOSIG

Decode

TAF

TAF AMD NZWN 160211Z 1602/1700 16010KT CAVOK BECMG 1605/1608 36008KT

Decode

Departure Runways

ID Width Length Bearing (true) Bearing (mag) Surface Threshold Offset Overrun Length
16 148 ft / 45 m 6,555 ft / 1,998 m 182.80° 160.21° Asphalt 200 ft / 61 m 197 ft / 60 m
34 148 ft / 45 m 6,555 ft / 1,998 m 2.80° 340.21° Asphalt 351 ft / 107 m 197 ft / 60 m

NZQN

Details ICAO NZQN (ZQN)
Name Queenstown
Region New Zealand and Antarctica
Timezone Pacific/Auckland (UTC+13.0)
Stats Elevation 1,171 ft / 357 m (AMSL)
Location -45.020546° 168.745402°
Runways 3
Magnetic Variation 24.419° E

METAR

Not found

TAF

TAF AMD NZQN 152149Z 1521/1612 VRB02KT 9999 SCT060 BECMG 1522/1600 27010KT TEMPO 1600/1605 6000 SHRA SCT020TCU BECMG 1608/1610 VRB02KT

Decode

Destination Runways

ID Width Length Bearing (true) Bearing (mag) Surface Threshold Offset Overrun Length
05L 121 ft / 37 m 2,516 ft / 767 m 75.96° 51.54° Grass 0 ft / 0 m 0 ft / 0 m
05R 116 ft / 35 m 6,056 ft / 1,846 m 75.96° 51.54° Asphalt 367 ft / 112 m 0 ft / 0 m
14 167 ft / 51 m 3,157 ft / 962 m 161.16° 136.74° Grass 33 ft / 10 m 0 ft / 0 m
23L 116 ft / 35 m 6,056 ft / 1,846 m 255.94° 231.52° Asphalt 187 ft / 57 m 0 ft / 0 m
23R 121 ft / 37 m 2,516 ft / 767 m 255.96° 231.54° Grass 0 ft / 0 m 0 ft / 0 m
32 167 ft / 51 m 3,157 ft / 962 m 341.16° 316.74° Grass 66 ft / 20 m 0 ft / 0 m

Popular Alternatives